SM5FGQ-2 Weather Reports


Display with metric or nautical units.
time (UTC)temp
F
wind
direction
speed
MPH
gust
MPH
rain 1hr
in
rain 24hr
in
rain mn
in
humidity
%
barometer
mb
20260903163041 65 245 2.0 4.0 0.00 0.00 0.00 54 1001.0
20260903160136 66 250 2.0 7.0 0.00 0.00 0.00 47 1001.2
20260903153122 67 265 2.0 6.0 0.00 0.00 0.00 41 1001.5
20260903150051 67 210 2.0 6.0 0.00 0.00 0.00 40 1001.7
20260903143041 67 176 3.0 8.0 0.00 0.00 0.00 41 1001.8
20260903140052 67 230 3.0 9.0 0.00 0.00 0.00 42 1002.1
20260903133022 66 257 4.0 11.0 0.00 0.00 0.00 44 1002.5
20260903130113 65 253 4.0 12.0 0.00 0.00 0.00 44 1002.8
20260903123103 64 273 4.0 10.0 0.00 0.00 0.00 45 1003.2
20260903120053 63 249 3.0 9.0 0.00 0.00 0.00 48 1003.3
20260903113105 64 242 4.0 9.0 0.00 0.01 0.00 49 1003.4
20260903110054 63 236 3.0 9.0 0.00 0.01 0.00 51 1003.5
20260903103023 62 266 5.0 13.0 0.00 0.01 0.00 52 1003.7
20260903100116 62 273 4.0 11.0 0.00 0.01 0.00 54 1003.8
20260903093104 61 226 5.0 17.0 0.00 0.01 0.00 55 1003.9
20260903090057 60 237 5.0 14.0 0.00 0.01 0.00 57 1004.1
20260903083045 59 238 5.0 12.0 0.00 0.01 0.00 59 1004.1
20260903080035 57 259 6.0 17.0 0.00 0.01 0.00 61 1004.1
20260903073025 56 234 5.0 16.0 0.00 0.01 0.00 62 1004.2
20260903070116 54 241 4.0 13.0 0.00 0.01 0.00 70 1004.2
20260903063106 52 203 3.0 7.0 0.00 0.01 0.00 78 1004.5
20260903060056 50 181 1.0 4.0 0.00 0.01 0.00 80 1004.5
20260903053046 50 223 1.0 6.0 0.00 0.01 0.00 81 1004.6
20260903050036 49 203 2.0 5.0 0.00 0.01 0.00 83 1004.6
20260903043026 49 188 1.0 4.0 0.00 0.01 0.00 84 1004.4
20260903040017 49 184 1.0 4.0 0.00 0.01 0.00 86 1004.4
20260903033107 49 240 1.0 3.0 0.00 0.01 0.00 87 1004.4
20260903030057 49 264 1.0 5.0 0.00 0.01 0.00 86 1004.5
20260903023046 49 180 1.0 4.0 0.00 0.01 0.00 86 1004.5
20260903020037 48 220 1.0 3.0 0.00 0.01 0.00 86 1004.7
20260903013027 48 199 0.0 3.0 0.00 0.01 0.00 83 1004.8
20260903010017 49 229 0.0 2.0 0.00 0.01 0.00 81 1004.9
20260903003107 50 197 0.0 2.0 0.00 0.01 0.00 80 1005.0
20260903000057 50 192 1.0 5.0 0.00 0.01 0.00 78 1005.2
20260902233047 52 233 0.0 3.0 0.00 0.01 0.00 75 1005.2
20260902230037 52 214 1.0 5.0 0.00 0.01 0.00 73 1005.3
20260902223027 53 236 1.0 5.0 0.00 0.01 0.00 72 1005.3
20260902220017 53 236 1.0 6.0 0.00 0.01 0.00 71 1005.3
20260902213127 53 256 1.0 6.0 0.00 0.01 0.01 70 1005.2
20260902210117 54 234 0.0 3.0 0.00 0.01 0.01 66 1005.2
20260902203107 55 206 0.0 3.0 0.00 0.01 0.01 62 1005.2
20260902200038 55 222 0.0 2.0 0.00 0.01 0.01 60 1005.1
20260902193027 57 217 0.0 3.0 0.00 0.01 0.01 56 1005.0
20260902190017 59 236 1.0 5.0 0.00 0.01 0.01 53 1004.9
20260902183107 61 236 3.0 6.0 0.00 0.01 0.01 50 1004.7
20260902180057 63 250 3.0 9.0 0.00 0.01 0.01 47 1004.6
20260902173046 64 273 2.0 6.0 0.00 0.01 0.01 45 1004.5
20260902170037 65 278 3.0 11.0 0.00 0.01 0.01 43 1004.4